Погода в Шиловском

Россия / Орловская область     52°58′53″N   35°58′32″E
темп.,
°C
ветер,
м/с
пор.,
м/с
влажн.,
%
обл.,
%
осадки,
мм/ч
давл.,
гПа
погр.,
м
13 апреля, вт
вт1300:00+11юв5147215 0.0 1023269
03:00+9юв3784100 0.0 102397
06:00+8вюв3685100 0.0 102477
09:00+13юв5106366 0.0 1023366
12:00+18ююв6104758 0.0 10221094
15:00+20ююв7935100 0.0 10211846
18:00+18юв47435 0.0 1020210
21:00+14юв3855100 0.0 1020156
14 апреля, ср
ср1400:00+12юв397420 0.0 1020200
03:00+10юв4108771 0.0 1020188
06:00+9юв3892100 0.0 1019154
09:00+13юв467474 0.0 1019400
12:00+17юв455513 0.0 10171145
15:00+18юв5638100 0.1 10161532
18:00+14зюз5768100 0.1 1016301
21:00+11з2281100 0.2 101717
15 апреля, чт
чт1500:00+11всв228052 0.1 101615
03:00+10вюв3583100 0.1 101691
06:00+10вюв3879100 0.0 1016146
09:00+12вюв2568100 0.0 1016223
12:00+11ююв1181100 0.3 101697
15:00+14в1364100 0.3 1015634
18:00+12ююз2373100 0.1 101479
21:00
16 апреля, пт
пт1600:00+10ссв2592100 0.1 1013122
03:00+9всв269399 0.3 1013157
06:00+9в3591100 0.1 1013114
09:00+12вюв4779100 0.1 1014452
12:00+14вюв5666100 0.4 10141058
15:00+14юв4667100 1.8 1014831
18:00+13ю4671100 1.6 1015582
21:00+10св1187100 0.6 101712
17 апреля, сб
сб1700:00+10св4796100 1.4 1018226
03:00+10св61290100 3.6 1018480
06:00+9св61290100 0.8 1019665
09:00+9всв71284100 0.9 1020715
12:00+11всв81275100 0.4 10211076
15:00+12всв71267100 0.5 10221165
18:00+12всв8135338 0.0 10231132
21:00+8всв715585 0.0 1025486